1364860828817,2.07038
1364860888817,2.06070
1364860948817,2.08584
1364861008817,2.07551
1364861068817,2.07460
1364861128817,2.05182
1364861188817,2.05367
1364861248817,2.07805
1364861308817,2.08146
1364861368817,2.07976
1364861428817,2.06438
1364861488817,2.05698
1364861548817,2.05893
1364861608817,2.02553
1364861668817,2.08182
1364861728817,2.03580
1364861788817,2.04808
1364861848817,2.06794
1364861908817,2.05080
1364861968817,2.05580
1364862028817,2.06737
1364862088817,2.02714
1364862148817,2.05356
1364862208817,2.04938
1364862268817,2.06547
1364862328817,2.04095
1364862388817,2.07019
1364862448817,2.05232
1364862508817,2.07151
1364862568817,2.04681
1364862628817,2.05815
1364862688817,2.06371
1364862748817,2.05589
1364862808817,2.05168
1364862868817,2.03657
1364862928817,2.03125
1364862988817,2.07255
1364863048817,2.04860
1364863108817,2.07228
1364863168817,2.05395
1364863228817,2.02794
1364863288817,2.03984
1364863348817,2.05193
1364863408817,2.06584
1364863468817,2.05511
1364863528817,2.05902
1364863588817,2.06899
1364863648817,2.03702
1364863708817,2.07752
1364863768817,2.05472
1364863828817,2.06093
1364863888817,2.06817
1364863948817,2.05885
1364864008817,2.08374
1364864068817,2.05626
1364864128817,2.05981
1364864188817,2.08243
1364864248817,2.09060
1364864308817,2.09399
1364864368817,2.10000
1364864428828,2.05201
1364864488828,2.06875
1364864548828,2.06940
1364864608828,2.09811
1364864668828,2.06739
1364864728828,2.10887
1364864788828,2.08219
1364864848828,2.07424
1364864908828,2.07355
1364864968828,2.09553
1364865028828,2.09091
1364865088828,2.08686
1364865148828,2.07874
1364865208828,2.07773
1364865268828,2.09659
1364865328828,2.07977
1364865388828,2.06778
1364865448828,2.05977
1364865508828,2.09260
1364865568828,2.06956
1364865628828,2.10050
1364865688828,2.09405
1364865748828,2.07533
1364865808828,2.06756
1364865868828,2.07648
1364865928828,2.10646
1364865988828,2.06103
1364866048828,2.07283
1364866108828,2.09043
1364866168828,2.10938
1364866228828,2.09381
1364866288828,2.10971
1364866348828,2.04975
1364866408828,2.07866
1364866468828,2.09577
1364866528828,2.07989
1364866588828,2.09559
1364866648828,2.08598
1364866708828,2.08386
1364866768828,2.05624
1364866828828,2.05325
1364866888828,2.07532
1364866948828,2.08038
1364867008828,2.11963
1364867068828,2.10755
1364867128828,2.10221
1364867188828,2.07297
1364867248828,2.06207
1364867308828,2.10280
1364867368828,2.09990
1364867428828,2.07615
1364867488828,2.09918
1364867548828,2.10457
1364867608828,2.10761
1364867668828,2.08747
1364867728828,2.08765
1364867788828,2.06810
1364867848828,2.06847
1364867908828,2.08960
1364867968828,2.07307
1364868028839,2.08980
1364868088839,2.08122
1364868148839,2.07186
1364868208839,2.06110
1364868268839,2.07718
1364868328839,2.08438
1364868388839,2.11007
1364868448839,2.09628
1364868508839,2.10656
1364868568839,2.08599
1364868628839,2.05248
1364868688839,2.08702
1364868748839,2.05535
1364868808839,2.09047
1364868868839,2.08021
1364868928839,2.06531
1364868988839,2.09855
1364869048839,2.10129
1364869108839,2.08890
1364869168839,2.09380
1364869228839,2.10983
1364869288839,2.11504
1364869348839,2.12928
1364869408839,2.09139
1364869468839,2.09505
1364869528839,2.11959
1364869588839,2.08569
1364869648839,2.10894
1364869708839,2.08642
1364869768839,2.07400
1364869828839,2.11906
1364869888839,2.07588
1364869948839,2.14140
1364870008839,2.09834
1364870068839,2.08295
1364870128839,2.08813
1364870188839,2.09536
1364870248839,2.10814
1364870308839,2.11751
1364870368839,2.11588
1364870428839,2.07802
1364870488839,2.07844
1364870548839,2.07985
1364870608839,2.11236
1364870668839,2.11686
1364870728839,2.11821
1364870788839,2.08933
1364870848839,2.10077
1364870908839,2.08085
1364870968839,2.10581
1364871028839,2.13726
1364871088839,2.10377
1364871148839,2.14883
1364871208839,2.11017
1364871268839,2.12392
1364871328839,2.11156
1364871388839,2.09884
1364871448839,2.09433
1364871508839,2.13268
1364871568839,2.14642
1364871628850,2.13894
1364871688850,2.14235
1364871748850,2.10652
1364871808850,2.14225
1364871868850,2.15315
1364871928850,2.12821
1364871988850,2.11077
1364872048850,2.11940
1364872108850,2.11549
1364872168850,2.16607
1364872228850,2.14513
1364872288850,2.06015
1364872828850,2.12035
1364872888850,2.07906
1364872948850,2.16641
1364873008850,2.13459
1364873068850,2.12137
1364873128850,2.11085
1364873188850,2.12369
1364873248850,2.14695
1364873308850,2.13689
1364873368850,2.12651
1364873428850,2.13298
1364873488850,2.09620
1364873548850,2.15602
1364873608850,2.13699
1364873668850,2.12494
1364873728850,2.13060
1364873788850,2.13013
1364873848850,2.17664
1364873908850,2.14244
1364873968850,2.13732
1364874028850,2.13574
1364874088850,2.13115
1364874148850,2.19722
1364874208850,2.09014
1364874268850,2.14900
1364874328850,2.13364
1364874388850,2.09995
1364874448850,2.12556
1364874508850,2.13451
1364874568850,2.14686
1364874628850,2.09684
1364874688850,2.15047
1364874748850,2.13270
1364874808850,2.10268
1364874868850,2.15228
1364874928850,2.14637
1364874988850,2.12178
1364875048850,2.12967
1364875108850,2.10218
1364875168850,2.12738
1364875228861,2.10461
1364875288861,2.10477
1364875348861,2.15324
1364875408861,2.13452
1364875468861,2.11980
1364875528861,2.14124
1364875588861,2.12145
1364875648861,2.10918
1364875708861,2.11220
1364875768861,2.13937
1364875828861,2.11106
1364875888861,2.15684
1364875948861,2.10644
1364876008861,2.12649
1364876068861,2.13049
1364876128861,2.12302
1364876188861,2.10999
1364876248861,2.11824
1364876308861,2.14019
1364876368861,2.10208
1364876428861,2.14667
1364876488861,2.09840
1364876548861,2.14830
1364876608861,2.12102
1364876668861,2.13674
1364876728861,2.12265
1364876788861,2.11625
1364876848861,2.11517
1364876908861,2.12005
1364876968861,2.10121
1364877028861,2.11716
1364877088861,2.16329
1364877148861,2.11222
1364877208861,2.10992
1364877268861,2.09664
1364877328861,2.11662
1364877388861,2.12064
1364877448861,2.10859
1364877508861,2.12962
1364877568861,2.11755
1364877628861,2.13104
1364877688861,2.11959
1364877748861,2.11878
1364877808861,2.14275
1364877868861,2.10681
1364877928861,2.11481
1364877988861,2.09337
1364878048861,2.11785
1364878108861,2.08950
1364878168861,2.13015
1364878228861,2.14645
1364878288861,2.09816
1364878348861,2.08317
1364878408861,2.11637
1364878468861,2.11724
1364878528861,2.09833
1364878588861,2.12104
1364878648861,2.18147
1364878708861,2.11289
1364878768861,2.10949
1364878828872,2.08968
1364878888872,2.10844
1364878948872,2.09822
1364879008872,2.09435
1364879068872,2.07672
1364879128872,2.11938
1364879188872,2.13750
1364879248872,2.14456
1364879308872,2.08280
1364879368872,2.10212
1364879428872,2.12805
1364879488872,2.08841
1364879548872,2.10334
1364879608872,2.11457
1364879668872,2.08967
1364879728872,2.13688
1364879788872,2.05697
1364879848872,2.00987
1364879908872,2.12863
1364879968872,2.11840
1364880028872,2.08763
1364880088872,2.04764
1364880148872,2.10592
1364880208872,2.10390
1364880268872,2.07450
1364880328872,2.09695
1364880388872,2.11394
1364880448872,2.05746
1364880508872,2.10464
1364880568872,2.10041
1364880628872,2.09330
1364880688872,2.11327
1364880748872,2.12448
1364880808872,2.09803
1364880868872,2.06439
1364880928872,2.08376
1364880988872,2.09455
1364881048872,2.07931
1364881108872,2.08978
1364881168872,2.10451
1364881228872,2.09396
1364881288872,2.12685
1364881348872,2.16952
1364881408872,2.09260
1364881468872,2.08324
1364881528872,2.07919
1364881588872,2.10102
1364881648872,2.08441
1364881708872,2.09052
1364881768872,2.10900
1364881828872,2.06614
1364881888872,2.10596
1364881948872,2.06944
1364882008872,2.06902
1364882068872,2.08230
1364882128872,2.07340
1364882188872,2.09985
1364882248872,2.10506
1364882308872,2.10689
1364882368872,2.08550
1364882428882,2.10913
1364882488882,2.06221
1364882548882,2.06823
1364882608882,2.09087
1364882668882,2.10043
1364882728882,2.09132
1364882788882,2.09237
1364882848882,2.03769
1364882908882,2.07566
1364882968882,2.08362
1364883028882,2.05950
1364883088882,2.08902
1364883148882,2.06491
1364883208882,2.08485
1364883268882,2.08787
1364883328882,2.08919
1364883388882,2.07733
1364883448882,2.07508
1364883508882,2.07260
1364883568882,2.08002
1364883628882,2.08199
1364883688882,2.07358
1364883748882,2.07615
1364883808882,2.07438
1364883868882,2.08540
1364883928882,2.07489
1364883988882,2.06490
1364884048882,2.06128
1364884108882,2.08142
1364884168882,2.03019
1364884228882,2.08050
1364884288882,2.05338
1364884348882,2.07559
1364884408882,2.08270
1364884468882,2.06089
1364884528882,2.06554
1364884588882,2.09365
1364884648882,2.05500
1364884708882,2.03382
1364884768882,2.06111
1364884828882,2.04040
1364884888882,2.06702
1364884948882,1.92068
1364885008882,2.07074
1364885068882,2.05956
1364885128882,2.07870
1364885188882,2.07372
1364885248882,2.09165
1364885308882,2.06351
1364885368882,2.06034
1364885428882,2.09184
1364885488882,2.04049
1364885548882,2.06378
1364885608882,2.07485
1364885668882,2.06840
1364885728882,2.05418
1364885788882,2.03822
1364885848882,2.06442
1364885908882,2.06506
1364885968882,2.05351
1364886028893,2.08827
1364886088893,2.04077
1364886148893,2.08055
1364886208893,2.06371
1364886268893,2.08937
1364886328893,2.05551
1364886388893,2.04859
1364886448893,2.05074
1364886508893,2.05917
1364886568893,2.07527
1364886628893,2.03228
1364886688893,2.02818
1364886748893,2.04255
1364886808893,2.07060
1364886868893,2.05516
1364886928893,2.06506
1364886988893,2.03887
1364887048893,2.07764
1364887108893,2.05776
1364887168893,2.04816
1364887228893,2.05356
1364887288893,2.04830
1364887348893,2.04858
1364887408893,2.04544
1364887468893,2.04017
1364887528893,2.05789
1364887588893,2.05213
1364887648893,2.05036
1364887708893,2.05466
1364887768893,2.05219
1364887828893,2.05234
1364887888893,2.04607
1364887948893,2.06741
1364888008893,2.06504
1364888068893,2.05171
1364888128893,2.07275
1364888188893,2.04614
1364888248893,2.05904
1364888308893,2.04801
1364888368893,2.05588
1364888428893,2.04286
1364888488893,2.03230
1364888548893,2.05422
1364888608893,2.08353
1364888668893,2.06894
1364888728893,2.05207
1364888788893,2.06565
1364888848893,2.05601
1364888908893,2.05905
1364888968893,2.05798
1364889028893,2.05243
1364889088893,2.07153
1364889148893,2.07834
1364889208893,2.07439
1364889268893,2.05016
1364889328893,2.04506
1364889388893,2.05421
1364889448893,2.05992
1364889508893,2.04018
1364889568893,2.03913
1364889628903,2.08060
1364889688903,2.05348
1364889748903,2.05160
1364889808903,2.06172
1364889868903,2.06008
1364889928903,2.04893
1364889988903,2.01249
1364890048903,2.06224
1364890108903,2.05402
1364890168903,2.04022
1364890228903,2.04839
1364890288903,2.04710
1364890348903,2.06415
1364890408903,2.06226
1364890468903,2.05120
1364890528903,2.02674
1364890588903,2.04312
1364890648903,2.05671
1364890708903,2.04874
1364890768903,2.04680
1364890828903,2.05816
1364890888903,2.01869
1364890948903,2.06030
1364891008903,2.05760
1364891068903,2.05374
1364891128903,2.04458
1364891188903,2.04313
1364891248903,2.05896
1364891308903,2.03912
1364891368903,2.03853
1364891428903,2.07058
1364891488903,2.04423
1364891548903,2.04817
1364891608903,2.04285
1364891668903,2.03268
1364891728903,2.06068
1364891788903,2.05169
1364891848903,2.04369
1364891908903,2.05318
1364891968903,2.05205
1364892028903,1.90130
1364892088903,2.20765
1364892148903,2.03883
1364892208903,2.03797
1364892268903,2.04549
1364892328903,2.04258
1364892388903,2.04448
1364892448903,2.05681
1364892508903,2.06322
1364892568903,2.05351
1364892628903,2.06618
1364892688903,2.04241
1364892748903,2.08630
1364892808903,2.06232
1364892868903,2.03009
1364892928903,2.04674
1364892988903,2.04931
1364893048903,2.05871
1364893108903,2.04079
1364893168903,2.03960
1364893228914,2.04390
1364893288914,2.05519
1364893348914,2.04145
1364893408914,2.05077
1364893468914,2.04543
1364893528914,2.05051
1364893588914,2.03926
1364893648914,2.04029
1364893708914,2.04613
1364893768914,2.05970
1364893828914,2.05520
1364893888914,2.04928
1364893948914,2.04400
1364894008914,2.03231
1364894068914,2.03260
1364894128914,2.05040
1364894188914,2.03653
1364894248914,2.06086
1364894308914,2.05290
1364894368914,2.02046
1364894428914,2.01343
1364894488914,2.05117
1364894548914,2.04600
1364894608914,2.04852
1364894668914,2.04317
1364894728914,1.82912
1364894788914,2.06765
1364894848914,2.05401
1364894908914,2.06048
1364894968914,2.05058
1364895028914,2.06748
1364895088914,2.04409
1364895148914,2.05472
1364895208914,2.04697
1364895268914,2.03807
1364895328914,2.04168
1364895388914,2.06776
1364895448914,2.04928
1364895508914,2.05231
1364895568914,2.03452
1364895628914,2.03495
1364895688914,2.05788
1364895748914,2.05279
1364895808914,2.06594
1364895868914,2.02204
1364895928914,2.03794
1364895988914,2.04129
1364896048914,2.03600
1364896108914,2.07306
1364896168914,2.05366
1364896228914,2.03797
1364896288914,2.04959
1364896348914,2.05781
1364896408914,2.04834
1364896468914,2.03264
1364896528914,2.05088
1364896588914,2.03448
1364896648914,2.03907
1364896708914,2.05417
1364896768914,2.07006
1364896828924,2.03025
1364896888924,2.06233
1364896948924,2.03784
1364897008924,2.06405
1364897068924,2.03826
1364897128924,2.04779
1364897188924,2.05254
1364897248924,2.05402
1364897308924,2.04035
1364897368924,2.05055
1364897428924,2.03635
1364897488924,2.09128
1364897548924,2.04241
1364897608924,2.06483
1364897668924,2.05476
1364897728924,2.04933
1364897788924,2.05941
1364897848924,2.05275
1364897908924,2.06882
1364897968924,2.03846
1364898028924,2.04327
1364898088924,2.06106
1364898148924,2.05594
1364898208924,2.07221
1364898268924,2.07858
1364898328924,2.07243
1364898388924,2.03718
1364898448924,2.04955
1364898508924,2.07106
1364898568924,2.05544
1364898628924,2.08714
1364898688924,2.04694
1364898748924,2.06258
1364898808924,2.07225
1364898868924,2.05649
1364898928924,2.07594
1364898988924,2.05113
1364899048924,2.04796
1364899108924,2.06252
1364899168924,2.07976
1364899228924,2.06355
1364899288924,2.06609
1364899348924,2.05089
1364899408924,2.05101
1364899468924,2.05869
1364899528924,2.05063
1364899588924,2.05465
1364899648924,2.03294
1364899708924,2.04824
1364899768924,2.07294
1364899828924,2.05788
1364899888924,2.05344
1364899948924,2.03814
1364900008924,2.06856
1364900068924,2.03544
1364900128924,2.06801
1364900188924,2.05957
1364900248924,2.04994
1364900308924,2.03446
1364900368924,2.05641
1364900428935,2.08057
1364900488935,2.06125
1364900548935,2.06058
1364900608935,2.08522
1364900668935,2.06766
1364900728935,2.07468
1364900788935,2.04974
1364900848935,2.05211
1364900908935,2.05764
1364900968935,2.03444
1364901028935,2.03828
1364901088935,2.03874
1364901148935,2.06154
1364901208935,2.06528
1364901268935,2.02646
1364901328935,2.03337
1364901388935,2.03958
1364901448935,2.05997
1364901508935,2.05389
1364901568935,2.03786
1364901628935,2.05193
1364901688935,2.02278
1364901748935,2.03771
1364901808935,2.04664
1364901868935,2.04297
1364901928935,2.06980
1364901988935,2.04469
1364902048935,2.03432
1364902108935,2.07655
1364902168935,2.04328
1364902228935,2.04434
1364902288935,2.02445
1364902348935,2.03572
1364902408935,2.06079
1364902468935,2.04678
1364902528935,2.04805
1364902588935,2.03874
1364902648935,2.06318
1364902708935,2.06750
1364902768935,2.04261
1364902828935,2.05689
1364902888935,2.03178
1364902948935,2.04021
1364903008935,2.01898
1364903068935,2.06694
1364903128935,2.04973
1364903188935,2.03833
1364903248935,2.05111
1364903308935,2.04017
1364903368935,2.05309
1364903428935,2.04745
1364903488935,2.04294
1364903548935,2.03687
1364903608935,2.05170
1364903668935,2.07174
1364903728935,2.03930
1364903788935,2.03927
1364903848935,2.05647
1364903908935,2.04819
1364903968935,2.05481
1364904028945,2.04550
1364904088945,2.02502
1364904148945,2.05435
1364904208945,2.02501
1364904268945,2.07062
1364904328945,2.05245
1364904388945,2.03916
1364904448945,2.04588
1364904508945,2.04269
1364904568945,2.04612
1364904628945,2.04603
1364904688945,2.05070
1364904748945,2.03738
1364904808945,2.03810
1364904868945,2.05250
1364904928945,2.06902
1364904988945,2.07835
1364905048945,2.06203
1364905108945,2.07220
1364905168945,2.06949
1364905228945,2.05590
1364905288945,2.03509
1364905348945,2.04165
1364905408945,2.06188
1364905468945,2.04987
1364905528945,2.05383
1364905588945,2.04983
1364905648945,2.04842
1364905708945,2.05708
1364905768945,2.04302
1364905828945,2.03167
1364905888945,2.06356
1364905948945,2.07241
1364906008945,2.02172
1364906068945,2.06019
1364906128945,2.05083
1364906188945,2.03491
1364906248945,2.04589
1364906308945,2.05689
1364906368945,2.05741
1364906428945,2.04672
1364906488945,2.02626
1364906548945,2.03101
1364906608945,2.04584
1364906668945,2.06548
1364906728945,2.04925
1364906788945,2.06116
1364906848945,2.07822
1364906908945,2.07108
1364906968945,2.04960
1364907028945,2.03709
1364907088945,2.05644
1364907148945,2.07589
1364907208945,2.08296
1364907268945,2.05315
1364907328945,2.04568
1364907388945,2.07666
1364907448945,2.03078
1364907508945,2.05520
1364907568945,2.05089
1364907628955,2.05205
1364907688955,2.05889
1364907748955,2.05567
1364907808955,2.07068
1364907868955,2.06149
1364907928955,2.03882
1364907988955,2.04864
1364908048955,2.05101
1364908108955,2.07206
1364908168955,2.03447
1364908228955,2.03583
1364908288955,2.04476
1364908348955,2.07121
1364908408955,2.07067
1364908468955,2.07667
1364908528955,2.06287
1364908588955,2.05901
1364908648955,2.03112
1364908708955,2.07364
1364908768955,2.05761
1364908828955,2.05753
1364908888955,2.05110
1364908948955,2.07163
1364909008955,2.06240
1364909068955,2.04897
1364909128955,2.04669
1364909188955,2.06133
1364909248955,2.03173
1364909308955,2.05087
1364909368955,2.05841
1364909428955,2.03345
1364909488955,2.05394
1364909548955,2.04784
1364909608955,2.09625
1364909668955,2.05097
1364909728955,2.05367
1364909788955,2.05964
1364909848955,2.05216
1364909908955,2.04398
1364909968955,2.05749
1364910028955,2.05306
1364910088955,2.03047
1364910148955,2.05710
1364910208955,2.03200
1364910268955,2.06687
1364910328955,2.06765
1364910388955,2.05706
1364910448955,2.06112
1364910508955,2.04593
1364910568955,2.07248
1364910628955,2.05900
1364910688955,2.03517
1364910748955,2.06691
1364910808955,2.05046
1364910868955,2.03180
1364910928955,2.05014
1364910988955,2.05316
1364911048955,2.05490
1364911108955,2.04441
1364911168955,2.06653
1364911228965,2.05902
1364911288965,2.05494
1364911348965,2.04906
1364911408965,2.07029
1364911468965,2.02482
1364911528965,1.97252
1364911588965,2.04898
1364911648965,2.05430
1364911708965,2.02883
1364911768965,2.04841
1364911828965,2.04350
1364911888965,2.09547
1364911948966,2.06157
1364912008966,2.07017
1364912068966,2.06103
1364912128966,2.08222
1364912188966,2.06043
1364912248965,2.05799
1364912308965,2.05131
1364912368965,2.08100
1364912428965,2.05863
1364912488965,2.06082
1364912548965,2.05955
1364912608965,2.04722
1364912668965,2.01719
1364912728965,2.06546
1364912788965,2.04804
1364912848965,2.03405
1364912908965,2.06028
1364912968965,2.02606
1364913028965,2.03509
1364913088965,2.05123
1364913148965,2.02900
1364913208965,2.07498
1364913268966,2.06129
1364913328966,2.05017
1364913388966,2.05375
1364913448966,2.04484
1364913508966,2.04882
1364913568966,2.07878
1364913628965,2.05882
1364913688965,2.02074
1364913748965,2.06332
1364913808965,2.08917
1364913868965,2.04786
1364913928965,2.04640
1364913988965,1.80829
1364914048965,2.05772
1364914108965,2.06500
1364914168965,2.03063
1364914228965,2.04717
1364914288965,2.05398
1364914348965,2.05244
1364914408965,2.06515
1364914468965,2.08045
1364914528965,2.06676
1364914588965,2.06132
1364914648966,2.06388
1364914708966,2.06426
1364914768966,2.04801
1364914828976,2.05470
1364914888976,2.02416
1364914948976,2.03204
1364915008976,2.08248
1364915068976,2.05471
1364915128976,2.06646
1364915188976,2.05038
1364915248976,2.05975
1364915308976,2.07815
1364915368976,2.08968
1364915428976,2.14979
1364915488976,2.12451
1364915548976,2.06044
1364915608976,2.08584
1364915668976,2.06779
1364915728976,2.08419
1364915788976,2.03735
1364915848976,2.06938
1364915908976,2.06257
1364915968976,2.08938
1364916028976,2.04808
1364916088976,2.07122
1364916148976,2.09072
1364916208976,2.08122
1364916268976,2.04380
1364916328976,2.07757
1364916388976,2.06447
1364916448976,2.11342
1364916508976,2.09613
1364916568976,2.07409
1364916628976,2.08602
1364916688976,2.07279
1364916748976,2.09507
1364916808976,2.08724
1364916868976,2.05730
1364916928976,2.09636
1364916988976,2.08833
1364917048976,2.06474
1364917108976,2.09227
1364917168976,2.10149
1364917228976,2.09361
1364917288976,2.09711
1364917348976,2.07606
1364917408976,2.06712
1364917468976,2.07500
1364917528976,2.09146
1364917588976,2.10788
1364917648976,2.09776
1364917708976,2.09952
1364917768976,2.09498
1364917828976,2.06477
1364917888976,2.10263
1364917948976,2.08283
1364918008976,2.03744
1364918068976,2.09181
1364918128976,2.09659
1364918188976,2.06266
1364918248976,2.08212
1364918308976,2.09914
1364918368976,2.08149
1364918428986,2.08187
1364918488986,2.05402
1364918548986,2.04970
1364918608986,2.10474
1364918668986,2.07598
1364918728986,2.05647
1364918788986,2.07664
1364918848986,2.08184
1364918908986,2.08212
1364918968986,2.17569
1364919028986,2.06958
1364919088986,2.08544
1364919148986,2.05144
1364919208986,2.05344
1364919268986,2.06114
1364919328986,2.07963
1364919388986,2.10611
1364919448986,2.07063
1364919508986,2.07234
1364919568986,2.07355
1364919628986,2.06818
1364919688986,2.07757
1364919748986,2.09623
1364919808986,2.08088
1364919868986,2.07518
1364919928986,2.06362
1364919988986,2.09089
1364920048986,2.08208
1364920108986,2.08255
1364920168986,2.08762
1364920228986,2.09526
1364920288986,2.07044
1364920348986,2.10306
1364920408986,2.11450
1364920468986,2.08541
1364920528986,2.10934
1364920588986,2.07936
1364920648986,2.10774
1364920708986,2.16207
1364920768986,2.15958
1364920828986,2.07164
1364920888986,2.07049
1364920948986,2.08055
1364921008986,2.09246
1364921068986,2.09996
1364921128986,2.09383
1364921188986,2.14487
1364921248986,2.09643
1364921308986,2.11127
1364921368986,2.10136
1364921428986,2.09011
1364921488986,2.11265
1364921548986,2.09622
1364921608986,2.09232
1364921668986,2.10544
1364921728986,2.14462
1364921788986,2.12138
1364921848986,2.12321
1364921908986,2.12381
1364921968986,2.10716
1364922028995,2.12657
1364922088996,2.09844
1364922148996,2.09876
1364922208996,2.14285
1364922268996,2.14777
1364922328996,2.11675
1364922388996,2.14601
1364922448996,2.12656
1364922508996,2.13419
1364922568996,2.14915
1364922628996,2.11189
1364922688996,2.14226
1364922748996,2.21063
1364922808996,2.14797
1364922868996,2.11583
1364922928996,2.10568
1364922988996,2.15807
1364923048996,2.14703
1364923108996,2.15682
1364923168996,2.14029
1364923228996,2.18722
1364923288995,2.13967
1364923348995,2.14261
1364923408995,2.13211
1364923468996,2.15496
1364923528996,2.15944
1364923588996,2.13450
1364923648996,2.13563
1364923708996,2.15522
1364923768996,2.15439
1364923828996,2.16103
1364923888996,2.13904
1364923948996,2.17629
1364924008996,2.14690
1364924068996,2.14751
1364924128996,2.12532
1364924188996,2.12748
1364924248996,2.17633
1364924308996,2.13988
1364924368996,2.17855
1364924428996,2.14463
1364924488996,2.17147
1364924548996,2.17955
1364924608996,2.12504
1364924668995,2.16874
1364924728995,2.13804
1364924788996,2.14434
1364924848996,2.15694
1364924908996,2.15261
1364924968996,2.14395
1364925028996,2.17702
1364925088996,2.19774
1364925148996,2.17106
1364925208996,2.18523
1364925268996,2.18861
1364925328996,2.18204
1364925388996,2.13108
1364925448996,2.17081
1364925508996,2.12903
1364925568996,2.20582
1364925629005,2.17885
1364925689005,2.19891
1364925749005,2.19537
1364925809005,2.18629
1364925869005,2.14201
1364925929005,2.17327
1364925989005,2.17490
1364926049005,2.12137
1364926109005,2.16839
1364926169005,2.17477
1364926229005,2.20407
1364926289005,2.14105
1364926349005,2.20273
1364926409005,2.16949
1364926469005,2.13574
1364926529005,2.17074
1364926589005,2.16984
1364926649005,2.17373